Location: Wells
(51.2093°N, 2.6446°W)
Time: 12:06:05
(UTC+00:00)

CAS-6 - Visible Passes

Search period start: 15 March 2026 00:00
Search period end: 25 March 2026 00:00
Orbit: 599 x 620 km, 97.8° (Epoch: 14 March)

Date Brightness Start Highest point End Pass type
(mag) Time Alt. Az. Time Alt. Az. Time Alt. Az.
15 Mar ? 21:22:26 23° NNE 21:22:26 23° NNE 21:24:18 10° N visible
15 Mar ? 22:59:22 12° NW 22:59:22 12° NW 22:59:51 10° NW visible
16 Mar ? 21:36:27 25° N 21:36:27 25° N 21:38:22 10° N visible
16 Mar ? 23:13:23 10° NW 23:13:23 10° NW 23:13:25 10° NW visible
17 Mar ? 20:13:31 12° NE 20:13:31 12° NE 20:14:35 10° NNE visible
17 Mar ? 21:50:27 26° N 21:50:27 26° N 21:52:23 10° NNW visible
18 Mar ? 20:27:31 15° NE 20:27:31 15° NE 20:29:14 10° NNE visible
18 Mar ? 22:04:27 26° NNW 22:04:27 26° NNW 22:06:22 10° NNW visible
19 Mar ? 20:41:31 18° NE 20:41:31 18° NE 20:43:37 10° NNE visible
19 Mar ? 22:18:27 24° NNW 22:18:27 24° NNW 22:20:16 10° NNW visible
20 Mar ? 20:55:31 22° NE 20:55:31 22° NE 20:57:51 10° N visible
20 Mar ? 22:32:27 22° NW 22:32:27 22° NW 22:34:08 10° NNW visible
21 Mar ? 21:09:31 27° NNE 21:09:31 27° NNE 21:12:02 10° N visible
21 Mar ? 22:46:27 19° NW 22:46:27 19° NW 22:47:55 10° NNW visible
22 Mar ? 21:23:31 32° NNE 21:23:31 32° NNE 21:26:08 10° N visible
22 Mar ? 23:00:28 16° NW 23:00:28 16° NW 23:01:37 10° NW visible
23 Mar ? 21:37:31 36° N 21:37:31 36° N 21:40:11 10° N visible
23 Mar ? 23:14:27 13° NW 23:14:27 13° NW 23:15:10 10° NW visible
24 Mar ? 20:14:35 13° ENE 20:14:43 13° NE 20:16:33 10° NNE visible
24 Mar ? 21:51:31 38° N 21:51:31 38° N 21:54:12 10° NNW visible
